SCP
0 0 0 -0 0 0 0 0 0 0 0 0 0 0 0 0 -0 -0 -0 -0 0 0
0 0 0 0 0 -0 0 0 0 0 0 0 0 0 0 0 -0 -0 -0 -0 -0 -0
0 0 -0 0 0 -0 -0 -0 -0 0 0 0 0 0 0 0 -0 -0 -0 -0 -0 -0
0 0 0 0 -0 0 0 0 0 0 0 0 0 0 0 0 0 -0 -0 -0 0 -0
0 0 0 0 0 0 0 0 0 0 0 0 0 0 -0 -0 0 -0 0 0 0 0
-0 -0 -0 -0 0 0 0 0 0 0 0 0 0 -0 -0 -0 -0 -0 0 0 0 0
-0 0 0 0 0 0 0 0 0 0 0 0 0 0 -0 -0 -0 0 0 0 0 0
0 0 0 0 0 0 0 0 0 1 1 1 1 1 0 -0 0 0 0 0 0 0
0 0 0 0 0 1 1 1 1 1 1 1 1 0 0 0 0 0 0 0 0 0
0 0 0 0 1 1 1 1 1 1 1 0 0 0 0 0 1 1 0 0 0 0
0 0 0 0 0 0 0 0 0 0 0 0 0 0 0 0 1 1 0 0 0 0
0 0 0 0 0 0 0 0 0 0 0 0 0 0 0 0 0 0 0 0 0 0
0 0 0 0 0 0 0 0 0 0 0 0 0 0 0 0 0 0 0 0 0 0
0 0 0 0 0 0 0 0 0 0 0 0 0 0 0 0 0 0 0 0 0 0
Wind_Speed_500mb
38 31 26 25 21 17 17 13 19 16 12 7 8 8 3 13 15 20 24 25 23 24
41 41 33 31 34 25 23 19 24 18 20 18 13 14 15 19 19 22 22 23 28 31
39 42 40 38 38 35 33 31 24 24 24 23 20 21 31 31 29 25 20 22 29 29
41 38 36 40 39 34 30 27 20 25 30 31 29 26 29 31 30 27 29 29 31 30
39 43 39 38 35 30 27 27 23 31 33 31 30 29 30 31 29 29 29 26 30 30
30 29 28 30 30 31 30 32 31 33 29 25 25 27 28 33 32 33 32 32 30 27
29 28 26 27 29 29 32 34 30 25 24 22 21 25 28 31 32 32 32 29 27 27
32 30 29 28 29 26 24 21 23 24 25 26 19 17 20 22 25 27 27 29 28 34
33 31 28 27 25 26 27 26 20 14 12 13 13 18 20 20 20 22 23 21 26 32
27 24 22 19 18 17 15 16 16 14 13 14 13 13 11 14 18 20 22 21 21 16
24 21 18 16 15 13 12 14 13 12 11 12 12 13 13 12 15 14 15 17 16 10
22 18 15 14 14 13 13 11 9 8 6 4 5 6 5 0 6 8 10 14 12 15
18 16 16 15 14 12 12 13 12 8 6 4 4 5 5 1 8 8 6 9 8 9
19 17 15 17 18 18 16 12 10 9 12 14 13 14 14 11 9 11 9 7 8 9
Wind_Direction_500mb
249 241 243 253 253 278 270 277 281 280 291 317 327 314 30 330 272 264 257 247 245 249
246 245 239 244 265 272 269 267 290 278 274 271 264 270 262 285 285 247 250 249 245 244
237 245 250 259 267 265 263 267 264 268 269 267 261 252 258 267 268 273 256 254 249 249
229 235 249 254 262 265 261 258 255 270 270 265 267 263 256 258 258 257 272 265 248 251
238 239 243 250 253 253 243 242 262 276 264 262 260 263 264 253 256 261 255 255 250 255
220 228 229 231 230 233 249 264 269 262 259 260 255 252 253 248 247 260 259 258 255 260
206 211 215 226 234 246 259 264 255 246 254 254 264 260 258 258 255 252 259 265 260 262
209 220 230 238 247 246 244 241 244 251 254 267 268 253 260 257 255 258 255 258 270 270
218 225 232 233 228 237 242 238 234 228 253 267 257 261 255 258 260 260 261 269 278 272
199 204 213 212 213 211 206 211 221 244 258 264 266 273 271 248 250 253 266 273 275 268
186 197 206 210 214 217 217 221 237 248 254 270 281 277 270 260 246 255 263 264 271 273
194 198 207 216 222 227 226 221 221 228 242 282 319 333 353 130 13 258 258 253 264 266
189 198 206 216 214 205 172 140 121 121 108 75 360 338 332 28 74 89 43 46 353 297
191 192 185 173 158 146 146 142 131 108 86 76 68 61 56 57 87 80 69 68 44 332
Wind_Speed_850mb
38 31 26 25 21 17 17 13 19 16 12 7 8 8 3 13 15 20 24 25 23 24
41 41 33 31 34 25 23 19 24 18 20 18 13 14 15 19 19 22 22 23 28 31
39 42 40 38 38 35 33 31 24 24 24 23 20 21 31 31 29 25 20 22 29 29
41 38 36 40 39 34 30 27 20 25 30 31 29 26 29 31 30 27 29 29 31 30
39 43 39 38 35 30 27 27 23 31 33 31 30 29 30 31 29 29 29 26 30 30
30 29 28 30 30 31 30 32 31 33 29 25 25 27 28 33 32 33 32 32 30 27
29 28 26 27 29 29 32 34 30 25 24 22 21 25 28 31 32 32 32 29 27 27
32 30 29 28 29 26 24 21 23 24 25 26 19 17 20 22 25 27 27 29 28 34
33 31 28 27 25 26 27 26 20 14 12 13 13 18 20 20 20 22 23 21 26 32
27 24 22 19 18 17 15 16 16 14 13 14 13 13 11 14 18 20 22 21 21 16
24 21 18 16 15 13 12 14 13 12 11 12 12 13 13 12 15 14 15 17 16 10
22 18 15 14 14 13 13 11 9 8 6 4 5 6 5 0 6 8 10 14 12 15
18 16 16 15 14 12 12 13 12 8 6 4 4 5 5 1 8 8 6 9 8 9
19 17 15 17 18 18 16 12 10 9 12 14 13 14 14 11 9 11 9 7 8 9
Wind_Direction_850mb
249 241 243 253 253 278 270 277 281 280 291 317 327 314 30 330 272 264 257 247 245 249
246 245 239 244 265 272 269 267 290 278 274 271 264 270 262 285 285 247 250 249 245 244
237 245 250 259 267 265 263 267 264 268 269 267 261 252 258 267 268 273 256 254 249 249
229 235 249 254 262 265 261 258 255 270 270 265 267 263 256 258 258 257 272 265 248 251
238 239 243 250 253 253 243 242 262 276 264 262 260 263 264 253 256 261 255 255 250 255
220 228 229 231 230 233 249 264 269 262 259 260 255 252 253 248 247 260 259 258 255 260
206 211 215 226 234 246 259 264 255 246 254 254 264 260 258 258 255 252 259 265 260 262
209 220 230 238 247 246 244 241 244 251 254 267 268 253 260 257 255 258 255 258 270 270
218 225 232 233 228 237 242 238 234 228 253 267 257 261 255 258 260 260 261 269 278 272
199 204 213 212 213 211 206 211 221 244 258 264 266 273 271 248 250 253 266 273 275 268
186 197 206 210 214 217 217 221 237 248 254 270 281 277 270 260 246 255 263 264 271 273
194 198 207 216 222 227 226 221 221 228 242 282 319 333 353 130 13 258 258 253 264 266
189 198 206 216 214 205 172 140 121 121 108 75 360 338 332 28 74 89 43 46 353 297
191 192 185 173 158 146 146 142 131 108 86 76 68 61 56 57 87 80 69 68 44 332